GFSNE_850_dewp_225.txt.gz
Dewpoint
1 2 2 1 -0 -0 3 5 6 6 5 5 5 5 6 6 5 5 4 4 3 3 2 2 0 -1 1 0 -1 -1 -1 -2 -12 -24 -27 -28 -28 -29
1 2 2 2 1 1 0 2 4 5 6 5 5 5 4 6 6 5 4 4 4 3 3 2 -1 0 0 0 -1 -1 -4 -6 -20 -22 -24 -26 -27 -28
-1 3 2 2 0 2 2 1 2 4 4 5 5 5 5 5 6 5 4 4 4 3 2 2 0 -1 -1 -1 -1 -4 -13 -21 -23 -21 -24 -25 -26 -27
-2 -3 -2 -1 2 3 2 1 1 2 4 4 5 5 4 4 5 5 3 4 3 3 3 2 1 -2 -1 -1 -3 -8 -18 -19 -20 -23 -24 -16 -24 -23
-2 -2 -2 -0 1 2 3 1 1 1 2 3 4 4 4 4 3 2 2 3 3 2 2 1 -0 -2 -1 -1 -4 -15 -19 -20 -21 -20 -11 -18 -21 -19
-3 -3 -2 1 2 2 2 1 1 1 2 2 3 3 2 2 2 2 1 1 1 0 -1 -1 -1 -1 -3 -2 -10 -18 -20 -19 -15 -9 -15 -18 -10 -7
-4 -3 -2 1 2 2 2 1 1 0 0 1 2 2 2 1 -0 -0 -0 -0 -1 -1 -1 -1 -2 -2 -2 -3 -15 -17 -16 -14 -9 -7 -8 -5 -5 -7
-4 -6 -3 -0 2 1 1 1 -0 -1 -0 -0 2 1 -0 0 0 -0 -1 -2 -3 -3 -2 -2 -2 -2 -3 -8 -15 -15 -14 -8 -4 -5 -4 -6 -7 -12
-6 -6 -3 0 1 1 0 0 -0 -1 -0 -0 0 -0 -0 -0 -0 -1 -1 -1 -2 -3 -3 -3 -4 -3 -6 -13 -13 -12 -6 -4 -5 -5 -6 -7 -10 -13
-5 -3 -1 1 1 1 -0 -1 -1 -1 -1 -1 -0 -0 -0 -0 0 0 -1 -3 -4 -4 -4 -5 -6 -6 -7 -8 -9 -6 -5 -6 -6 -6 -7 -7 -14 -28
-5 -3 -0 0 0 -0 -1 -1 -1 -2 -2 -2 -1 -1 -1 -2 -2 -3 -4 -4 -5 -5 -6 -6 -7 -7 -7 -7 -6 -6 -6 -6 -6 -7 -8 -10 -27 -33
-4 -3 -0 -0 0 -1 -1 -2 -1 -2 -2 -2 -2 -3 -2 -3 -3 -3 -3 -4 -5 -7 -7 -6 -7 -7 -7 -7 -7 -7 -6 -6 -6 -7 -12 -28 -32 -32
-3 -2 -1 -1 -1 -2 -2 -2 -2 -2 -3 -3 -3 -3 -3 -3 -3 -3 -3 -3 -4 -5 -7 -6 -6 -6 -7 -8 -8 -7 -7 -7 -8 -15 -20 -23 -24 -26
-2 -1 -2 -1 -1 -2 -3 -3 -3 -3 -3 -4 -4 -4 -4 -4 -4 -4 -4 -4 -4 -3 -4 -5 -5 -6 -6 -7 -8 -8 -8 -8 -11 -16 -17 -18 -18 -19
-2 -2 -2 -2 -2 -3 -3 -3 -3 -4 -4 -5 -5 -5 -5 -5 -5 -5 -5 -4 -5 -4 -5 -5 -5 -6 -6 -6 -7 -7 -8 -11 -14 -15 -16 -16 -15 -15
-3 -2 -2 -2 -3 -4 -4 -5 -4 -5 -4 -5 -5 -6 -6 -6 -6 -5 -5 -5 -5 -6 -6 -6 -6 -6 -7 -7 -8 -14 -15 -14 -13 -13 -13 -13 -16 -17
-3 -3 -3 -4 -5 -5 -6 -5 -5 -5 -5 -5 -6 -6 -6 -6 -6 -6 -6 -6 -6 -7 -7 -7 -7 -8 -8 -10 -12 -13 -14 -13 -13 -14 -15 -15 -15 -16
-3 -3 -4 -5 -5 -6 -6 -6 -5 -5 -5 -5 -6 -6 -6 -6 -6 -6 -6 -6 -7 -7 -7 -9 -13 -15 -19 -22 -24 -25 -24 -22 -20 -18 -17 -17 -17 -18
-5 -4 -4 -5 -6 -6 -6 -6 -6 -6 -6 -6 -6 -6 -6 -7 -7 -7 -7 -8 -9 -13 -19 -23 -26 -24 -22 -19 -14 -14 -15 -15 -16 -16 -16 -16 -16 -17
-5 -5 -6 -6 -7 -6 -6 -6 -6 -6 -6 -6 -6 -7 -7 -7 -8 -9 -12 -16 -16 -14 -13 -13 -13 -14 -15 -16 -15 -16 -15 -15 -15 -14 -14 -14 -16 -20
-7 -6 -6 -7 -7 -6 -7 -6 -6 -6 -6 -7 -8 -8 -10 -12 -15 -17 -17 -13 -13 -12 -12 -13 -13 -12 -12 -13 -13 -13 -13 -14 -16 -17 -18 -18 -19 -19
-7 -7 -7 -7 -7 -7 -7 -7 -7 -7 -8 -8 -9 -11 -14 -17 -17 -15 -14 -12 -12 -12 -12 -12 -12 -13 -13 -13 -14 -15 -16 -15 -16 -17 -17 -18 -17 -17
-7 -7 -7 -7 -7 -7 -7 -7 -7 -8 -8 -9 -12 -15 -16 -14 -13 -13 -13 -13 -13 -13 -13 -13 -14 -14 -13 -13 -14 -15 -17 -18 -18 -19 -19 -20 -19 -18

GFSNE_850_dewp_228.txt.gz
Dewpoint
2 3 2 1 3 3 3 3 3 4 5 5 5 4 5 6 6 6 6 5 6 5 5 3 3 3 3 2 2 1 1 0 0 -0 -2 -9 -4 -26
1 2 2 1 -1 1 3 3 3 3 4 3 3 5 5 5 5 5 5 6 6 6 5 4 3 3 2 2 1 1 -0 -0 0 -0 -3 -9 -10 -24
0 -0 0 -0 -1 -2 -2 2 3 2 3 2 3 2 4 5 6 6 5 6 6 6 5 4 4 3 2 1 1 0 0 -0 -0 -1 -15 -21 -22 -22
-1 -2 -3 -2 -2 -1 1 1 2 2 2 2 2 2 3 4 4 5 5 5 4 6 5 4 4 3 2 1 0 0 -0 -1 -1 -5 -17 -21 -23 -21
-3 -3 -3 -3 -3 -2 -1 1 1 1 2 1 1 2 1 2 4 4 5 5 5 5 5 4 4 3 2 1 0 -0 -1 -1 -3 -14 -20 -23 -20 -11
-3 -2 -4 -5 -3 -1 -2 1 1 1 1 0 0 0 1 2 2 3 3 4 4 4 4 4 4 3 1 1 -0 -0 -2 -1 -4 -16 -20 -22 -11 -9
-8 -8 -4 -3 -3 -2 -1 -0 1 0 -0 -0 -0 -0 -0 1 2 2 2 2 2 3 2 2 2 1 0 -0 -0 -1 -1 -1 -6 -17 -21 -12 -6 -8
-7 -8 -10 -9 -6 -4 0 1 0 0 -0 -0 -1 -1 -1 1 1 2 1 0 -0 -0 1 0 1 -0 -0 -1 -1 -1 -2 -2 -15 -19 -14 -5 -4 -5
-7 -7 -8 -10 -6 -1 0 -0 -0 -0 -0 -1 -1 -1 -1 -0 1 1 0 1 -0 -0 -0 -1 -1 -1 -1 -1 -2 -2 -3 -7 -17 -12 -5 -4 -5 -5
-7 -8 -7 -9 -4 -1 -0 -1 -0 -1 -1 -1 -1 -1 -1 -1 -0 0 0 -1 -1 -2 -2 -4 -4 -3 -2 -2 -2 -3 -3 -15 -12 -5 -5 -5 -5 -5
-5 -7 -7 -8 -3 -1 -1 -1 -1 -2 -2 -1 -2 -2 -2 -1 -1 -1 -2 -2 -3 -4 -4 -4 -6 -4 -5 -5 -5 -5 -8 -7 -6 -5 -6 -6 -6 -7
-2 -4 -5 -4 -2 -1 -1 -1 -2 -2 -2 -2 -2 -3 -2 -2 -2 -2 -2 -3 -4 -6 -5 -4 -6 -5 -7 -6 -6 -6 -6 -6 -6 -7 -7 -6 -7 -8
-3 -3 -2 -2 -2 -2 -1 -1 -2 -3 -3 -3 -3 -3 -3 -3 -3 -3 -3 -3 -4 -4 -5 -4 -6 -6 -6 -7 -7 -7 -7 -7 -7 -8 -7 -7 -9 -21
-3 -3 -3 -2 -2 -2 -2 -2 -3 -3 -4 -3 -3 -4 -4 -4 -4 -4 -4 -4 -3 -3 -3 -4 -5 -5 -6 -7 -7 -7 -8 -8 -8 -8 -8 -14 -20 -21
-3 -3 -3 -3 -3 -2 -2 -3 -4 -4 -4 -4 -4 -5 -5 -4 -4 -4 -5 -5 -4 -4 -4 -4 -5 -5 -6 -6 -7 -8 -8 -9 -9 -8 -11 -15 -15 -15
-3 -3 -3 -3 -3 -3 -4 -4 -4 -4 -5 -4 -5 -5 -6 -5 -5 -5 -5 -6 -5 -5 -6 -6 -6 -5 -7 -6 -6 -7 -8 -8 -9 -12 -12 -13 -13 -13
-4 -4 -3 -3 -3 -4 -5 -5 -5 -5 -5 -5 -6 -6 -6 -6 -6 -6 -6 -6 -5 -6 -7 -6 -6 -6 -6 -7 -7 -7 -8 -9 -15 -14 -13 -12 -13 -16
-5 -4 -4 -3 -4 -5 -6 -6 -6 -6 -6 -6 -6 -6 -6 -6 -6 -6 -6 -6 -6 -7 -7 -7 -7 -7 -8 -9 -11 -13 -13 -13 -13 -13 -14 -14 -15 -15
-5 -5 -4 -4 -5 -6 -6 -6 -6 -6 -5 -5 -6 -6 -6 -6 -6 -6 -6 -6 -6 -7 -7 -7 -7 -9 -12 -12 -13 -14 -14 -15 -17 -17 -17 -16 -16 -16
-5 -6 -6 -6 -6 -6 -6 -6 -6 -6 -6 -6 -6 -6 -6 -6 -6 -7 -7 -7 -7 -7 -9 -14 -21 -26 -27 -27 -21 -19 -17 -15 -15 -15 -15 -14 -14 -14
-6 -7 -6 -6 -7 -7 -7 -6 -6 -6 -6 -6 -6 -6 -7 -7 -7 -7 -7 -9 -12 -18 -21 -17 -15 -15 -16 -16 -16 -15 -15 -14 -14 -15 -16 -18 -19 -22
-7 -7 -7 -7 -7 -7 -7 -7 -6 -6 -6 -7 -7 -7 -7 -7 -8 -9 -13 -17 -16 -15 -14 -13 -14 -14 -14 -14 -14 -14 -15 -16 -16 -17 -20 -22 -21 -18
-7 -7 -7 -7 -7 -7 -7 -7 -7 -7 -7 -7 -8 -9 -12 -13 -16 -18 -18 -16 -15 -14 -14 -13 -13 -12 -13 -15 -16 -15 -16 -16 -18 -18 -18 -19 -19 -20

GFSNE_850_dewp_231.txt.gz
Dewpoint
-10 -4 -3 0 2 1 2 2 2 3 3 3 3 3 4 4 5 5 5 5 5 6 7 6 5 4 5 4 3 2 2 2 2 1 1 0 0 -0
-8 -5 -1 -1 -0 -0 -2 0 -0 2 2 2 2 2 2 3 3 5 5 5 5 6 6 6 6 5 5 5 4 3 2 2 2 1 0 -0 -0 -1
-6 -4 -4 -1 -0 1 0 -1 -1 1 1 2 2 2 2 2 3 3 3 5 5 4 6 6 6 5 5 4 4 3 2 2 1 1 0 -0 -1 -4
-4 -2 -3 -3 -3 -2 -2 -3 -2 -1 1 1 1 1 1 1 2 2 3 3 4 4 5 5 5 5 5 4 4 3 2 2 1 0 -0 -0 -3 -16
-2 -1 -3 -2 -2 -3 -4 -4 -2 -2 1 0 -0 0 0 0 1 0 2 1 3 3 4 4 5 5 5 4 4 2 1 1 0 -0 -0 -0 -8 -16
-1 -3 -8 -6 -5 -2 -2 -2 -0 -2 -1 0 -0 -0 -0 -0 0 0 -0 1 1 4 2 3 4 5 4 4 3 2 1 0 -0 -0 -1 -1 -11 -21
-1 -2 -4 -3 -4 -6 -5 -3 -2 -3 0 0 -0 -1 -1 -1 0 -1 -1 0 1 2 3 4 4 4 4 4 3 2 1 -0 -0 -1 -1 -2 -18 -22
-3 -3 -5 -6 -6 -7 -7 -5 -3 -1 0 -0 -1 -1 -1 -1 -1 -1 -1 1 2 2 3 3 3 2 2 3 2 1 1 -0 -0 -1 -1 -7 -21 -19
-3 -2 -3 -4 -5 -6 -8 -5 -2 -1 -1 -1 -1 -1 -1 -1 -1 -1 -1 -0 1 1 1 1 0 1 -0 1 2 1 -0 -0 -1 -2 -2 -14 -20 -13
-3 -3 -4 -4 -5 -4 -6 -4 -2 -1 -1 -1 -1 -1 -2 -2 -1 -2 -1 -0 -0 -1 -0 -2 -2 -2 -2 -1 0 -0 -1 -1 -1 -2 -6 -18 -15 -5
-4 -3 -3 -2 -3 -2 -3 -2 -3 -2 -2 -1 -1 -2 -2 -2 -3 -2 -2 -1 -2 -3 -3 -3 -5 -4 -5 -4 -2 -1 -1 -2 -3 -4 -14 -10 -6 -5
-4 -4 -4 -3 -3 -3 -3 -2 -2 -2 -2 -2 -2 -3 -3 -3 -3 -2 -2 -2 -2 -4 -4 -5 -6 -5 -6 -6 -4 -4 -4 -4 -5 -7 -8 -6 -5 -6
-5 -5 -4 -3 -3 -3 -2 -2 -2 -2 -2 -2 -3 -3 -3 -4 -3 -3 -3 -2 -3 -3 -4 -4 -6 -5 -6 -8 -7 -6 -6 -7 -7 -6 -6 -6 -7 -7
-6 -5 -4 -4 -3 -3 -3 -3 -3 -3 -3 -3 -4 -4 -4 -4 -4 -4 -4 -4 -3 -2 -2 -3 -5 -5 -4 -7 -8 -8 -7 -7 -7 -7 -7 -7 -7 -8
-6 -5 -4 -3 -3 -3 -4 -3 -3 -4 -4 -4 -4 -5 -5 -5 -4 -4 -4 -4 -4 -4 -4 -3 -4 -5 -4 -5 -8 -8 -8 -8 -7 -7 -8 -8 -8 -9
-6 -5 -4 -4 -3 -3 -4 -3 -4 -5 -5 -5 -5 -6 -6 -6 -5 -5 -5 -5 -5 -5 -5 -6 -5 -4 -5 -5 -5 -7 -8 -9 -9 -8 -8 -8 -12 -14
-6 -5 -4 -4 -4 -4 -4 -4 -5 -5 -6 -6 -7 -7 -6 -6 -6 -6 -6 -6 -5 -6 -7 -6 -6 -6 -6 -6 -7 -7 -8 -8 -8 -8 -8 -13 -14 -14
-6 -5 -5 -5 -5 -5 -5 -5 -6 -6 -6 -6 -7 -7 -6 -6 -6 -6 -6 -6 -6 -7 -7 -7 -7 -7 -7 -7 -7 -8 -8 -8 -10 -9 -14 -15 -14 -13
-5 -5 -5 -5 -5 -5 -6 -6 -6 -6 -6 -6 -7 -7 -6 -6 -6 -6 -6 -6 -7 -7 -7 -7 -7 -8 -9 -9 -9 -8 -8 -9 -14 -13 -13 -13 -13 -13
-6 -6 -6 -6 -6 -6 -6 -6 -6 -6 -6 -6 -6 -6 -6 -6 -6 -6 -6 -7 -7 -7 -7 -7 -7 -7 -8 -12 -13 -12 -12 -14 -14 -14 -14 -14 -15 -15
-7 -7 -7 -7 -7 -7 -7 -7 -6 -6 -6 -6 -6 -6 -6 -6 -7 -7 -7 -7 -7 -8 -8 -11 -15 -19 -21 -26 -21 -15 -16 -14 -14 -15 -16 -16 -16 -16
-7 -7 -7 -7 -7 -7 -7 -7 -7 -6 -6 -7 -7 -7 -7 -7 -7 -7 -7 -7 -8 -14 -19 -20 -18 -17 -18 -18 -17 -16 -14 -14 -15 -16 -17 -18 -19 -21
-7 -7 -7 -7 -7 -7 -7 -7 -7 -7 -7 -7 -7 -7 -7 -7 -7 -8 -10 -16 -19 -18 -18 -16 -15 -15 -16 -15 -16 -16 -16 -16 -16 -17 -20 -21 -21 -21

GFSNE_850_dewp_234.txt.gz
Dewpoint
-8 -9 -7 -7 -6 -3 -1 -0 0 2 1 -1 1 -1 1 1 3 3 5 5 5 4 3 5 6 6 6 6 6 5 4 4 3 3 2 2 1 1
-9 -7 -6 -5 -4 -4 -2 -1 1 1 2 1 -1 -2 -1 1 1 1 3 4 4 5 5 4 2 6 6 6 6 5 4 4 3 2 2 2 1 1
-8 -8 -7 -3 -3 -3 -3 -1 -1 1 -0 -2 -3 -2 -3 -1 -1 1 0 2 3 3 4 5 5 5 5 6 6 5 5 4 3 2 2 2 1 0
-5 -5 -6 -2 -2 -2 -2 -3 -3 -2 -1 -2 -3 -2 -3 -3 -3 -3 -3 -2 1 3 3 3 3 4 5 6 6 6 5 4 3 3 2 2 1 -0
-4 -3 -4 -2 -3 -3 -2 -1 -1 -1 1 0 -2 -3 -3 -1 -1 -5 -4 -4 -2 -1 1 2 3 3 4 5 5 5 5 3 3 2 2 1 0 -0
-1 -1 -1 -1 -2 -2 -2 -2 -3 -4 -2 -0 -1 -1 -1 -2 -1 -5 -8 -3 -3 -3 -2 -0 2 3 3 4 5 5 5 3 2 2 1 1 0 -1
-3 -3 -3 -3 -2 -2 -3 -4 -5 -5 -2 -1 -3 -1 -0 -1 -2 -2 -2 -1 -2 -3 -2 0 1 2 3 3 4 4 5 3 2 1 1 0 -0 -1
-5 -5 -5 -5 -5 -3 -2 -2 -3 -4 -2 -1 -2 -1 -1 -1 -2 -2 -2 -2 -1 -1 -4 -0 1 1 1 3 3 4 4 3 2 1 -0 -0 -0 -2
-4 -5 -6 -6 -4 -3 -4 -4 -3 -3 -3 -1 -1 -1 -1 -2 -2 -2 -2 -2 -2 -2 -1 -0 0 2 2 2 3 3 3 3 2 1 -0 -0 -1 -1
-5 -5 -4 -5 -4 -4 -4 -3 -3 -3 -3 -1 -2 -2 -2 -2 -2 -2 -3 -2 -2 -2 -1 -1 -0 1 1 2 2 2 3 2 1 0 -1 -1 -1 -5
-7 -7 -6 -6 -5 -4 -4 -4 -4 -3 -2 -2 -2 -3 -3 -3 -3 -3 -3 -2 -3 -2 -2 -1 -3 -1 -1 -1 -1 -2 2 1 -0 -1 -1 -2 -4 -14
-7 -7 -6 -6 -6 -4 -4 -3 -3 -3 -3 -3 -3 -3 -3 -3 -3 -3 -3 -3 -3 -3 -3 -3 -5 -3 -5 -5 -5 -5 -4 -1 -1 -2 -2 -3 -9 -17
-7 -7 -7 -6 -5 -4 -4 -3 -3 -3 -3 -3 -4 -3 -3 -4 -4 -4 -3 -3 -3 -3 -3 -4 -5 -4 -6 -7 -6 -4 -2 -3 -3 -3 -4 -6 -7 -7
-7 -6 -6 -6 -5 -4 -4 -3 -3 -3 -4 -4 -3 -4 -4 -4 -4 -4 -4 -4 -4 -3 -3 -4 -4 -5 -6 -6 -7 -6 -5 -5 -4 -6 -7 -6 -6 -6
-7 -6 -6 -5 -4 -4 -4 -3 -4 -4 -4 -4 -5 -5 -5 -5 -5 -4 -5 -5 -5 -4 -4 -5 -4 -5 -5 -6 -8 -7 -7 -7 -7 -6 -6 -6 -6 -7
-7 -6 -6 -5 -4 -4 -4 -4 -5 -5 -5 -6 -6 -6 -6 -6 -5 -5 -5 -5 -5 -6 -6 -6 -5 -5 -5 -5 -6 -7 -7 -8 -7 -7 -7 -7 -8 -8
-6 -6 -6 -5 -5 -5 -5 -5 -5 -6 -6 -6 -6 -7 -7 -6 -6 -6 -6 -6 -5 -7 -7 -7 -6 -5 -5 -5 -6 -7 -7 -7 -8 -8 -8 -8 -9 -9
-6 -6 -6 -5 -5 -5 -5 -5 -6 -6 -6 -6 -7 -7 -7 -7 -7 -6 -6 -5 -6 -7 -7 -7 -7 -6 -7 -8 -7 -7 -8 -8 -8 -8 -8 -8 -10 -13
-7 -7 -7 -6 -6 -6 -6 -6 -6 -6 -6 -7 -7 -7 -7 -7 -7 -7 -6 -6 -6 -7 -7 -7 -7 -7 -7 -9 -9 -8 -8 -8 -8 -9 -9 -13 -15 -14
-8 -7 -7 -7 -7 -7 -7 -7 -6 -6 -6 -6 -6 -7 -7 -7 -7 -6 -7 -6 -7 -7 -7 -7 -7 -7 -8 -9 -10 -9 -8 -8 -9 -10 -13 -13 -13 -13
-8 -7 -7 -7 -7 -7 -7 -7 -7 -7 -6 -6 -6 -7 -7 -7 -7 -7 -7 -7 -7 -8 -7 -7 -7 -7 -8 -9 -9 -9 -11 -12 -14 -15 -16 -14 -14 -15
-7 -8 -7 -7 -7 -7 -7 -7 -7 -7 -6 -6 -6 -7 -7 -7 -7 -7 -7 -7 -8 -8 -8 -9 -12 -16 -21 -17 -15 -15 -13 -13 -14 -15 -15 -16 -16 -17
-8 -7 -8 -8 -8 -8 -8 -7 -7 -7 -7 -7 -7 -7 -7 -7 -7 -7 -7 -8 -8 -10 -16 -23 -22 -21 -22 -21 -22 -20 -18 -15 -15 -15 -17 -19 -23 -28